www.pogodaiklimat.ru

Погода и климат >> Архив погоды >> Австралия >> Новый Южный Уэльс >> Айванхо


ПОГОДА в Айванхо

  • Прогноз погоды в Айванхо
  • Монитор погоды в Айванхо

АРХИВ ПОГОДЫ в Айванхо

Время (UTC), дата Ветер
(напр.,м/с)
 
Видим.   Явления Облачность Т
(С)
Тd
(С)
f
(%)
Тe
(С)
Тes
(С)
Комфортность P
(гПа)
Po
(гПа)
Тmin
(С)
Tmax
(С)
R
(мм)
R24
(мм)
S
(см)
07 11.02 З 5 н/о н/о +32.2 +3.2 16 +30 +30 жарко 1001.0 989.7
08 11.02 СЗ 6 н/о н/о +32.3 +2.4 15 +29 +29 жарко 1001.2 989.9
10 11.02 С 2 н/о н/о +28.9 +2.2 18 +27 +27 жарко 1001.0 989.7
11 11.02 С 3 н/о н/о +26.7 +2.6 21 +25 +25 комфорт 1001.1 989.8
13 11.02 С 4 н/о н/о +25.5 +2.9 23 +24 +24 комфорт 1000.7 989.4 +33.2
14 11.02 С 5 н/о н/о +25.4 +2.8 23 +24 +24 комфорт 1000.1 988.8
16 11.02 З 6 н/о н/о +25.1 +5.3 28 +25 +25 комфорт 1000.0 988.7
17 11.02 З 3 н/о н/о +23.0 +5.9 33 +23 +23 комфорт 999.9 988.6
19 11.02 С 4 н/о н/о +20.3 +6.6 41 +21 +21 комфорт 999.8 988.5
20 11.02 С 4 н/о н/о +20.4 +4.8 36 +21 +21 комфорт 999.7 988.4
22 11.02 СЗ 4 н/о н/о +26.8 +5.7 26 +26 +26 жарко 1000.5 989.2
23 11.02 СЗ 7 н/о н/о +29.4 +4.8 21 +28 +28 жарко 1000.6 989.3
01 12.02 СЗ 10 н/о н/о +32.2 +5.7 19 +30 +30 жарко 1000.2 988.9 +20.0
02 12.02 СЗ 8 н/о н/о +33.1 +5.6 18 +31 +31 жарко 999.1 987.8
04 12.02 З 8 н/о н/о +34.7 +6.1 17 +32 +32 жарко 997.1 985.8
05 12.02 СЗ 8 н/о н/о +35.6 +5.9 16 +33 +33 жарко 996.4 985.1
07 12.02 З 9 н/о н/о +33.3 +5.8 18 +31 +31 жарко 996.7 985.4
08 12.02 ЮЗ 10 н/о н/о +29.6 +10.7 31 +30 +30 жарко 998.1 986.8
10 12.02 Ю 10 н/о н/о +21.5 +9.4 46 +23 +23 комфорт 1002.5 991.2
11 12.02 Ю 8 н/о н/о +20.5 +7.8 44 +21 +21 комфорт 1004.4 993.0
13 12.02 Ю 6 н/о н/о +19.3 +5.4 40 +19 +19 1006.2 994.8 +36.2
14 12.02 Ю 8 н/о н/о +17.9 +1.4 33 +17 +17 1006.9 995.5
16 12.02 ЮЗ 6 н/о н/о +16.0 +1.0 36 +15 +15 1007.6 996.2
17 12.02 Ю 6 н/о н/о +15.1 +0.9 38 +14 +14 1008.1 996.7
19 12.02 Ю 4 н/о н/о +13.3 +1.3 44 +12 +12 1009.3 997.9
20 12.02 Ю 4 н/о н/о +12.4 +1.7 48 +11 +11 1010.4 999.0
22 12.02 Ю 5 н/о н/о +15.3 +3.5 45 +14 +14 1012.4 1001.0
23 12.02 Ю 7 н/о н/о +16.8 +3.8 42 +16 +16 1013.0 1001.6
01 13.02 Ю 6 н/о н/о +19.0 +2.0 32 +19 +19 1013.5 1002.0 +12.5
02 13.02 Ю 6 н/о н/о +21.5 +2.7 29 +21 +21 комфорт 1013.1 1001.7
04 13.02 Ю 6 н/о н/о +22.7 +1.1 24 +22 +22 комфорт 1012.6 1001.2
05 13.02 ЮЗ 7 н/о н/о +23.1 +0.2 22 +22 +22 комфорт 1012.5 1001.1
07 13.02 Ю 6 н/о н/о +23.6 0.0 21 +22 +22 комфорт 1012.4 1001.0
08 13.02 Ю 6 н/о н/о +23.3 -0.2 21 +22 +22 комфорт 1012.8 1001.4
10 13.02 Ю 4 н/о н/о +20.8 +0.1 25 +21 +21 комфорт 1014.5 1003.0
11 13.02 Ю 3 н/о н/о +19.3 -0.1 27 +20 +20 1015.5 1004.0
13 13.02 Ю 3 н/о н/о +16.8 0.0 32 +17 +17 1015.8 1004.3 +24.8
14 13.02 Ю 3 н/о н/о +16.8 0.0 32 +17 +17 1015.9 1004.4
16 13.02 Ю 4 н/о н/о +16.0 +0.2 34 +16 +16 1015.5 1004.0
17 13.02 Ю 4 н/о н/о +15.5 +0.1 35 +15 +15 1015.6 1004.1
19 13.02 Ю 4 н/о н/о +14.1 +0.4 39 +13 +13 1016.2 1004.7
20 13.02 Ю 3 н/о н/о +13.0 +0.7 43 +12 +12 1016.9 1005.4
22 13.02 Ю 5 н/о н/о +17.1 +1.5 35 +16 +16 1019.0 1007.5
23 13.02 Ю 4 н/о н/о +19.8 +1.3 29 +20 +20 1019.3 1007.8
01 14.02 ЮВ 6 н/о н/о +23.5 +0.6 22 +23 +23 комфорт 1019.3 1007.8 +13.0
02 14.02 Ю 6 н/о н/о +24.8 +0.3 20 +23 +23 комфорт 1018.6 1007.1
04 14.02 Ю 3 н/о н/о +27.4 +0.2 17 +25 +25 комфорт 1017.3 1005.8
05 14.02 Ю 6 н/о н/о +27.2 -0.8 16 +25 +25 комфорт 1016.7 1005.2
07 14.02 Ю 5 н/о н/о +29.0 -0.2 15 +26 +26 жарко 1016.2 1004.7
08 14.02 Ю 6 н/о н/о +28.0 -0.1 16 +26 +26 жарко 1016.2 1004.7
10 14.02 Ю 5 н/о н/о +25.0 -0.2 19 +23 +23 комфорт 1017.6 1006.1
11 14.02 Ю 4 н/о н/о +23.6 +0.7 22 +23 +23 комфорт 1018.1 1006.6
13 14.02 ЮВ 3 н/о н/о +20.8 +0.6 26 +21 +21 комфорт 1018.3 1006.8 +29.5
14 14.02 ЮВ 4 н/о н/о +20.9 +1.2 27 +21 +21 комфорт 1018.5 1007.0
16 14.02 Ю 3 н/о н/о +17.4 +1.0 33 +17 +17 1017.9 1006.4
17 14.02 Ю 3 н/о н/о +16.3 +0.8 35 +16 +16 1018.1 1006.6
19 14.02 ЮВ 3 н/о н/о +15.0 +1.2 39 +15 +15 1018.7 1007.2
20 14.02 Ю 3 н/о н/о +13.9 +0.9 41 +13 +13 1019.5 1008.0
22 14.02 ЮВ 5 н/о н/о +21.8 +3.0 29 +22 +22 комфорт 1020.5 1009.0
23 14.02 В 6 н/о н/о +25.5 +2.9 23 +24 +24 комфорт 1020.4 1008.9
01 15.02 ЮВ 5 н/о н/о +29.4 +3.4 19 +27 +27 жарко 1019.4 1007.9 +14.0
02 15.02 ЮВ 5 н/о н/о +30.8 +7.9 24 +30 +30 жарко 1018.5 1007.0
04 15.02 В 4 н/о н/о +32.4 +7.3 21 +31 +31 жарко 1016.6 1005.1
05 15.02 ЮЗ 3 н/о н/о +33.6 +7.6 20 +32 +32 жарко 1015.8 1004.3
07 15.02 Ю 4 н/о н/о +33.5 +6.7 19 +32 +32 жарко 1015.0 1003.5
08 15.02 ЮВ 4 н/о н/о +33.4 +5.9 18 +31 +31 жарко 1014.6 1003.1
10 15.02 Ю 4 н/о н/о +30.1 +1.5 16 +28 +28 жарко 1015.4 1003.9
11 15.02 Ю 4 н/о н/о +28.7 +0.4 16 +26 +26 жарко 1016.0 1004.5
13 15.02 Ю 4 н/о н/о +26.5 +0.3 18 +25 +25 комфорт 1016.0 1004.5 +34.5
14 15.02 Ю 4 н/о н/о +25.4 +0.1 19 +24 +24 комфорт 1015.8 1004.3
16 15.02 Ю 4 н/о н/о +23.8 +1.4 23 +23 +23 комфорт 1015.0 1003.5
17 15.02 ЮВ 3 н/о н/о +22.6 +1.6 25 +22 +22 комфорт 1015.0 1003.5
19 15.02 В 4 н/о н/о +21.8 +1.5 26 +21 +21 комфорт 1015.2 1003.7
20 15.02 В 3 н/о н/о +21.3 +2.6 29 +21 +21 комфорт 1015.4 1003.9
22 15.02 В 5 н/о н/о +26.2 +5.7 27 +26 +26 жарко 1016.1 1004.6
23 15.02 СВ 6 н/о н/о +28.0 +8.3 29 +28 +28 жарко 1015.9 1004.4
01 16.02 СВ 3 н/о н/о +31.4 +7.8 23 +30 +30 жарко 1015.5 1004.0 +21.4
02 16.02 С 3 н/о н/о +33.0 +7.8 21 +31 +31 жарко 1014.7 1003.2
04 16.02 З 4 н/о н/о +35.5 +6.7 17 +33 +33 жарко 1012.9 1001.5
05 16.02 ЮЗ 4 н/о н/о +35.9 +7.0 17 +34 +34 очень
жарко
1011.8 1000.4
07 16.02 В 2 н/о н/о +35.6 +6.8 17 +33 +33 жарко 1010.7 999.3
08 16.02 ЮВ 2 н/о н/о +35.8 +7.0 17 +34 +34 очень
жарко
1010.4 999.0
10 16.02 В 3 н/о н/о +32.0 +7.0 21 +30 +30 жарко 1011.0 999.6
11 16.02 В 3 н/о н/о +30.0 +6.6 23 +29 +29 жарко 1011.4 1000.0
13 16.02 В 3 н/о н/о +27.2 +6.0 26 +26 +26 жарко 1011.1 999.7 +37.6
14 16.02 СВ 3 н/о н/о +27.2 +6.6 27 +27 +27 жарко 1010.8 999.4
16 16.02 СВ 5 н/о н/о +27.5 +6.8 27 +27 +27 жарко 1009.9 998.5
17 16.02 СВ 3 н/о н/о +26.5 +6.5 28 +26 +26 жарко 1009.8 998.4
19 16.02 ЮЗ 2 н/о н/о +23.3 +6.1 33 +24 +24 комфорт 1010.4 999.0
20 16.02 штиль 0 н/о н/о +22.1 +5.9 35 +23 +23 комфорт 1010.9 999.5
22 16.02 В 3 н/о н/о +27.7 +7.5 28 +27 +27 жарко 1011.4 1000.0
23 16.02 СВ 3 н/о н/о +30.3 +8.1 25 +29 +29 жарко 1011.3 999.9
01 17.02 С 4 н/о н/о +36.3 +8.2 18 +34 +34 очень
жарко
1010.5 999.1 +22.0
02 17.02 СЗ 5 н/о н/о +37.1 +7.1 16 +35 +35 очень
жарко
1009.5 998.1
04 17.02 СЗ 6 н/о н/о +37.8 +6.7 15 +35 +35 очень
жарко
1007.7 996.3
05 17.02 З 5 н/о н/о +38.4 +6.2 14 +36 +36 очень
жарко
1006.7 995.3
07 17.02 СЗ 4 н/о н/о +37.5 +6.5 15 +35 +35 очень
жарко
1005.6 994.2
08 17.02 С 1 н/о н/о +37.8 +5.7 14 +35 +35 очень
жарко
1005.3 993.9
10 17.02 Ю 2 н/о н/о +33.1 +4.8 17 +31 +31 жарко 1006.1 994.7
11 17.02 Ю 2 н/о н/о +31.6 +5.2 19 +30 +30 жарко 1006.7 995.3
13 17.02 Ю 2 н/о н/о +28.1 +3.7 21 +27 +27 жарко 1006.8 995.4 +39.6
14 17.02 ЮЗ 2 н/о н/о +26.1 +4.0 24 +25 +25 комфорт 1006.9 995.5
16 17.02 ЮВ 4 н/о н/о +26.0 +2.7 22 +25 +25 комфорт 1005.8 994.4
17 17.02 Ю 3 н/о н/о +25.3 +2.1 22 +24 +24 комфорт 1005.5 994.1
19 17.02 В 3 н/о н/о +24.2 +2.4 24 +23 +23 комфорт 1005.2 993.8
20 17.02 В 4 н/о н/о +23.9 +3.2 26 +23 +23 комфорт 1005.3 993.9
22 17.02 С 6 н/о н/о +30.6 +6.5 22 +29 +29 жарко 1005.6 994.2
23 17.02 С 7 н/о н/о +35.2 +8.1 19 +33 +33 жарко 1005.5 994.1
01 18.02 С 8 н/о н/о +38.8 +8.5 16 +37 +37 очень
жарко
1004.7 993.3 +23.4
02 18.02 С 7 н/о н/о +39.7 +8.2 15 +38 +38 очень
жарко
1003.7 992.4
05 18.02 СЗ 6 н/о н/о +42.2 +5.6 11 +39 +39 очень
жарко
1001.3 990.0
07 18.02 З 6 н/о н/о +40.3 +2.8 10 +37 +37 очень
жарко
1000.6 989.3

 

Местоположение метеостанции Айванхо (Новый Южный Уэльс, Австралия): широта -32.88 долгота 144.32 высота над уровнем моря 100 м.

В архиве по умолчанию представлена погода в Айванхо за последнюю неделю. Архивные данные за месяц целиком и за предыдущие месяцы, начиная с января 2011 года, Вы можете получить, выбрав интересующий диапазон дат из раскрывающегося списка и нажав кнопку "Ввод!".


*Определитесь, кто Вы:
робот инопланетянин человек

Внимание! Время в таблицах - всемирное. Для получения местного времени необходимо прибавить поправку, которая равна 10 ч.

Смотрите также архив погоды в соседних городах и на ближайших метеорологических станциях:

Погода в Уилкании (Новый Южный Уэльс, Австралия) (175 км)
Погода в Хее (Новый Южный Уэльс, Австралия) (189 км)
Погода в Кобар аэропорту (Новый Южный Уэльс, Австралия) (205 км)
Погода в Кобаре (Новый Южный Уэльс, Австралия) (211 км)
Погода в Гриффите (Новый Южный Уэльс, Австралия) (223 км)
Погода в Уафт Клифс (Новый Южный Уэльс, Австралия) (255 км)
Погода в Милдьюре (Новый Южный Уэльс, Австралия) (256 км)
Погода в Кондоболине (Новый Южный Уэльс, Австралия) (271 км)
Погода в Янко (Новый Южный Уэльс, Австралия) (275 км)
Погода в Брокен-Хилле (Новый Южный Уэльс, Австралия) (286 км)

Пояснения к столбцам:

Ветер - указаны скорость ветра в м/с - средняя за 10 мин, порывы в срок и между сроками (в фигурных скобках) и направление, откуда дует ветер: С - северный, СВ - северо-восточный, В - восточный, ЮВ - юго-восточный, Ю - южный, ЮЗ - юго-западный, З - западный, СЗ - северо-западный.
Видимость - горизонтальная дальность видимости в метрах или километрах. При видимости от 1 до 10 км при отсутствии осадков обычно наблюдается дымка, при ухудшении видимости до 1 км и менее - туман. В сухую погоду видимость может ухудшаться дымом, пылью или мглою.
Явления - указаны атмосферные явления, наблюдавшиеся в срок или в последний час перед сроком; фигурными скобками обозначены явления, наблюдавшиеся между сроками (за 1-3 часа до срока); квадратными скобками обозначены град или гололедные отложения с указанием их диаметра в мм.
Облачность - указаны через наклонную черту общая и нижняя облачность в баллах и высота нижней границы облаков в метрах; квадратными скобками обозначены формы облаков: Ci - перистые, Cs - перисто-слоистые, Cc - перисто-кучевые, Ac - высококучевые, As - высокослоистые, Sc - слоисто-кучевые, Ns - слоисто-дождевые, Cu - кучевые, Cb - кучево-дождевые. Подробнее классификацию облаков см. в Атласе облаков (PDF).
T - Температура воздуха - температура, измеренная на высоте 2 м над землей.
Td - Температура точки росы - температура, при понижении до которой содержащийся в воздухе водяной пар достигнет насыщения.
f - Относительная влажность воздуха - влажноcть воздуха, измеренная на высоте 2 м над землей.
Te - Эффективная температура - температура, которую ощущает одетый по сезону человек в тени. Характеристика душности погоды. При расчете учитывается влияние влажности воздуха и скорости ветра на теплоощущения человека.
Tes - Эффективная температура на солнце - температура, которую ощущает человек, с поправкой на солнечный нагрев. Характеристика знойности погоды. Зависит от высоты солнца над горизонтом, облачности и скорости ветра. Ночью, в пасмурную погоду, а также при ветре 12 м/с и более поправка равна нулю.
P - Атмосферное давление - приведенное к уровню моря атмосферное давление.
Po - Атмосферное давление - измеренное на уровне метеостанции атмосферное давление.
Tmin - Минимальная температура - минимум температуры воздуха на высоте 2 м над землей.
Tmax - Максимальная температура - максимум температуры воздуха на высоте 2 м над землей.
R - Количество осадков - Количество выпавших осадков за период времени, мм. При наведении курсора мыши на число - период времени, за который выпало указанное количество осадков.
R24 - Количество осадков - Количество выпавших осадков за 24 часа, мм.
S - Снежный покров - Высота снежного покрова, см. При наведении курсора мыши на число - состояние снежного покрова и степень покрытия местности в баллах.